Location: Newark
(15.4608°S, 41.1635°W)
Time: 13:03:55
(UTC+00:00)

Envisat - Pass Details

Date: 21 June 2021
Orbit: 764 x 766 km, 98.1° (Epoch: 25 July)

Event Time Altitude Azimuth Distance (km) Brightness Sun altitude
Rises 21:08:17 0° 202° (SSW) 3,245 6.3 -10.9°
Reaches altitude 10° 21:12:22 10° 234° (SW) 2,311 5.9 -11.8°
Maximum altitude 21:13:55 11° 252° (WSW) 2,212 6.2 -12.2°
Drops below altitude 10° 21:15:29 10° 270° (W) 2,305 6.7 -12.5°
Sets 21:19:33 0° 303° (WNW) 3,222 8.0 -13.5°
